[[{"header":{"parameterUnit":"m.s-1","parameterCategory":1,"la1":30.2991,"la2":30.254,"lo1":-89.0895,"lo2":-89.0444,"dy":0.0017,"dx":0.0017,"nx":28,"ny":28,"refTime":"2025-05-21T09:00:00:Z","depth":0,"parameterNumber":2,"parameterNumberName":"U-component_of_WINDS"},"data":[0,0,0,0,0,0,0,0,0,0,0,0,0,0,0,0,0,0,0,0,0,0,0,0,0,0,0,0,0,0,0,0,0,0,0,0,0,0,0,0,0,0,0,0,0,0,0,0,0,0,0,0,0,0,0,0,0,0,-1.3042,-1.3042,0,-1.3006,-1.3006,-1.3005,-1.2999,-1.3,-1.3,-1.3,-1.2961,-1.296,-1.2958,0,0,0,0,0,0,0,0,0,0,0,0,0,-1.3104,-1.3102,-1.3042,-1.3042,-1.3041,-1.3006,-1.3006,-1.3005,-1.2999,-1.3,-1.3,-1.3001,-1.2961,-1.296,-1.2958,0,0,0,0,0,0,0,0,0,0,0,0,0,-1.3073,-1.3102,-1.3042,-1.3034,-1.3033,-1.3006,-1.3006,-1.3005,-1.2999,-1.3,-1.3,-1.3001,-1.2962,-1.296,-1.2958,-1.2936,0,0,-1.2952,-1.2951,0,0,0,0,0,0,0,0,-1.3075,-1.3071,-1.3036,-1.3035,-1.3033,-1.3008,-1.3013,-1.2982,-1.2999,-1.3012,-1.3,-1.3001,-1.2976,-1.2973,-1.2965,-1.2934,-1.2932,-1.2952,-1.295,-1.295,-1.2949,0,0,0,0,0,0,0,-1.3077,-1.3072,-1.3028,-1.3035,-1.3034,-1.3032,-1.3028,-1.3007,-1.2992,-1.3011,-1.301,-1.3006,-1.2975,-1.2967,-1.2964,-1.2932,-1.2952,-1.295,-1.2949,-1.2948,-1.288,-1.288,0,0,0,0,0,0,-1.3081,-1.3074,-1.3029,-1.3027,-1.3056,-1.303,-1.3026,-1.3015,-1.2992,-1.2989,-1.3006,-1.3006,-1.297,-1.2966,-1.2963,-1.2935,-1.295,-1.2948,-1.2946,-1.2881,-1.288,-1.288,0,0,0,0,0,0,-1.3082,-1.3077,-1.303,-1.305,-1.3044,-1.3029,-1.3017,-1.3014,-1.3006,-1.2988,-1.2985,-1.3,-1.297,-1.2965,-1.2943,-1.2933,-1.2947,-1.2945,-1.2882,-1.2881,-1.288,-1.2879,0,0,0,0,0,0,-1.3084,-1.3077,-1.3069,-1.305,-1.3043,-1.3012,-1.3016,-1.3013,-1.3003,-1.3003,-1.2982,-1.2979,-1.297,-1.2946,-1.2941,-1.2931,-1.2943,-1.2882,-1.2881,-1.288,-1.288,-1.2878,-1.2877,0,0,0,0,0,-1.3086,-1.307,-1.3069,-1.3063,-1.3033,-1.3011,-1.3007,-1.2998,-1.3002,-1.2993,-1.2982,-1.298,-1.2935,-1.2943,-1.2938,-1.2927,-1.2883,-1.2882,-1.288,-1.288,-1.2878,-1.2877,0,0,0,0,0,0,-1.3087,-1.3067,-1.3066,-1.3043,-1.3029,-1.301,-1.2999,-1.2996,-1.298,-1.2981,-1.297,-1.2965,-1.2943,-1.2933,-1.2942,-1.2904,-1.2909,-1.2907,-1.2911,-1.2909,-1.2908,-1.291,-1.2942,0,0,0,0,0,-1.3085,-1.307,-1.3053,-1.3035,-1.3028,-1.3015,-1.3005,-1.2999,-1.2984,-1.2978,-1.2964,-1.2949,-1.2931,-1.292,-1.2903,-1.2879,-1.2873,-1.2868,-1.2867,-1.2866,-1.2863,-1.2849,-1.2846,-1.2875,-1.2875,-1.2875,0,0,-1.308,-1.3067,-1.3058,-1.3035,-1.3023,-1.3007,-1.301,-1.2992,-1.298,-1.2975,-1.2952,-1.2942,-1.2924,-1.29,-1.2889,-1.2891,-1.2854,-1.2864,-1.2863,-1.2861,-1.2848,-1.2845,-1.2842,-1.2874,-1.2875,-1.2875,0,0,-1.3063,-1.3052,-1.3035,-1.3024,-1.3006,-1.2998,-1.2994,-1.2975,-1.2969,-1.2946,-1.2942,-1.2927,-1.2897,-1.2884,-1.2874,-1.2852,-1.2849,-1.2847,-1.2838,-1.2825,-1.2822,-1.282,-1.2812,-1.2809,-1.2845,-1.2845,-1.2844,0,-1.3058,-1.3034,-1.3027,-1.3009,-1.2999,-1.2994,-1.2977,-1.2966,-1.2943,-1.2936,-1.2939,-1.2902,-1.2889,-1.2862,-1.2857,-1.2849,-1.2843,-1.2848,-1.2824,-1.2821,-1.2819,-1.2811,-1.2808,-1.2844,-1.2844,-1.2844,-1.2844,0,-1.303,-1.3013,-1.3001,-1.2981,-1.2969,-1.2951,-1.294,-1.2929,-1.2925,-1.2916,-1.2893,-1.2878,-1.2858,-1.2851,-1.2846,-1.2823,-1.2825,-1.2826,-1.2831,-1.2817,-1.2808,-1.2805,-1.2844,-1.2844,-1.2844,-1.2844,0,0,-1.3011,-1.2987,-1.2982,-1.2973,-1.2953,-1.294,-1.2922,-1.2903,-1.2894,-1.2879,-1.2863,-1.2838,-1.2839,-1.2827,-1.2821,-1.2809,-1.2792,-1.2812,-1.2811,-1.2808,-1.2764,-1.2763,-1.276,-1.279,-1.279,-1.2789,-1.2766,0,-1.299,-1.2959,-1.2952,-1.2925,-1.2909,-1.2905,-1.289,-1.2876,-1.2867,-1.2852,-1.2842,-1.2824,-1.2827,-1.282,-1.2808,-1.2797,-1.2783,-1.2798,-1.2774,-1.2774,-1.2778,-1.2755,-1.2754,-1.2732,-1.2763,-1.2762,-1.2762,0,-1.2962,-1.2947,-1.2919,-1.2901,-1.2894,-1.2881,-1.2862,-1.2848,-1.2832,-1.2827,-1.2814,-1.2809,-1.279,-1.2797,-1.2769,-1.278,-1.277,-1.2763,-1.2762,-1.2758,-1.2766,-1.275,-1.2725,-1.2722,-1.2757,-1.2757,-1.2757,0,-1.295,-1.2923,-1.2902,-1.2894,-1.2874,-1.2864,-1.2855,-1.284,-1.2829,-1.2813,-1.2805,-1.2787,-1.2777,-1.2762,-1.2752,-1.2759,-1.2726,-1.2732,-1.272,-1.272,-1.2712,-1.2712,-1.2684,-1.2708,-1.2708,-1.2708,-1.2708,0,-1.2928,-1.291,-1.2897,-1.2884,-1.2864,-1.2856,-1.2836,-1.2827,-1.2813,-1.2798,-1.2793,-1.2779,-1.2768,-1.2751,-1.2744,-1.2722,-1.2718,-1.2712,-1.271,-1.2712,-1.2712,-1.2704,-1.2705,-1.2707,-1.2707,-1.2707,-1.2707,0,-1.2911,-1.2901,-1.2878,-1.2861,-1.2856,-1.2842,-1.2827,-1.2814,-1.2805,-1.2786,-1.2781,-1.2767,-1.2748,-1.2737,-1.2713,-1.2708,-1.2683,-1.2683,-1.2689,-1.2688,-1.2676,-1.2677,-1.264,-1.2635,-1.2663,-1.2663,-1.2662,0,-1.2896,-1.2883,-1.2864,-1.2854,-1.2845,-1.2828,-1.2817,-1.2808,-1.2797,-1.2778,-1.2767,-1.2748,-1.2732,-1.2701,-1.2689,-1.267,-1.2668,-1.2657,-1.2665,-1.2667,-1.2667,-1.2667,-1.2665,-1.2655,-1.2654,-1.2654,-1.2654,0,-1.2871,-1.2867,-1.2852,-1.2834,-1.2821,-1.2807,-1.2793,-1.2785,-1.2773,-1.2761,-1.2741,-1.2729,-1.2705,-1.2685,-1.2666,-1.2656,-1.2652,-1.2652,-1.2648,-1.2649,-1.2653,-1.2649,-1.2684,-1.2652,-1.2652,-1.2653,-1.2653,-1.2653,-1.2854,-1.2842,-1.2827,-1.281,-1.2798,-1.2785,-1.2772,-1.2762,-1.2746,-1.2726,-1.2722,-1.2701,-1.2685,-1.2659,-1.2648,-1.2632,-1.2633,-1.2628,-1.2626,-1.2625,-1.2624,-1.2656,-1.2628,-1.2628,-1.2628,-1.2628,-1.2628,0,-1.2829,-1.2819,-1.2803,-1.2783,-1.277,-1.2769,-1.2753,-1.2742,-1.2724,-1.271,-1.2694,-1.2672,-1.2653,-1.2639,-1.262,-1.2609,-1.2607,-1.2605,-1.2605,-1.2602,-1.2624,-1.2629,-1.2606,-1.2606,-1.2606,-1.2606,-1.2606,-1.2606,-1.2813,-1.2792,-1.2786,-1.2759,-1.2749,-1.273,-1.2721,-1.2708,-1.2697,-1.2672,-1.2657,-1.2648,-1.2634,-1.2614,-1.2596,-1.2593,-1.2585,-1.2582,-1.2578,-1.2598,-1.2601,-1.2603,-1.2607,-1.2581,-1.2581,-1.2558,-1.2558,-1.2558]},{"header":{"parameterUnit":"m.s-1","parameterCategory":1,"la1":30.2991,"la2":30.254,"lo1":-89.0895,"lo2":-89.0444,"dy":0.0017,"dx":0.0017,"nx":28,"ny":28,"refTime":"2025-05-21T09:00:00:Z","depth":0,"parameterNumber":3,"parameterNumberName":"V-component_of_WINDS"},"data":[0,0,0,0,0,0,0,0,0,0,0,0,0,0,0,0,0,0,0,0,0,0,0,0,0,0,0,0,0,0,0,0,0,0,0,0,0,0,0,0,0,0,0,0,0,0,0,0,0,0,0,0,0,0,0,0,0,0,2.1658,2.1658,0,2.1704,2.1704,2.1705,2.1747,2.1748,2.1748,2.1749,2.1793,2.1794,2.1795,0,0,0,0,0,0,0,0,0,0,0,0,0,2.1606,2.1606,2.1658,2.1658,2.1659,2.1704,2.1704,2.1705,2.1747,2.1748,2.1749,2.1749,2.1793,2.1794,2.1795,0,0,0,0,0,0,0,0,0,0,0,0,0,2.1637,2.1607,2.1658,2.1686,2.1689,2.1704,2.1704,2.1705,2.1747,2.1748,2.1749,2.1749,2.1793,2.1794,2.1795,2.1785,0,0,2.1798,2.1798,0,0,0,0,0,0,0,0,2.1636,2.1639,2.1681,2.1684,2.1687,2.1721,2.1702,2.1732,2.1747,2.1725,2.1749,2.175,2.1768,2.1771,2.1778,2.1787,2.1789,2.1798,2.1799,2.1799,2.1799,0,0,0,0,0,0,0,2.1633,2.1638,2.1676,2.1681,2.1685,2.1695,2.1701,2.1708,2.1741,2.1727,2.173,2.1735,2.177,2.1777,2.1779,2.179,2.1798,2.1799,2.18,2.18,2.1795,2.1794,0,0,0,0,0,0,2.1627,2.1636,2.1674,2.1677,2.1663,2.1696,2.1702,2.1709,2.1741,2.1747,2.1734,2.1737,2.1775,2.1778,2.1781,2.1773,2.1799,2.18,2.1801,2.1796,2.1795,2.1794,0,0,0,0,0,0,2.1626,2.163,2.1673,2.1657,2.1664,2.1696,2.1704,2.1709,2.1717,2.1747,2.1753,2.1735,2.1776,2.178,2.1784,2.1775,2.18,2.1801,2.1796,2.1795,2.1794,2.1756,0,0,0,0,0,0,2.1624,2.163,2.1626,2.1657,2.1664,2.1675,2.1703,2.171,2.1719,2.1722,2.175,2.1755,2.1777,2.1783,2.1785,2.1777,2.1802,2.1797,2.1796,2.1795,2.1758,2.1754,2.175,0,0,0,0,0,2.1622,2.1613,2.1626,2.163,2.1661,2.1675,2.1679,2.1704,2.1718,2.1715,2.1735,2.1754,2.1776,2.1783,2.1786,2.1778,2.1798,2.1796,2.1795,2.176,2.1755,2.175,0,0,0,0,0,0,2.1579,2.1617,2.1632,2.1633,2.165,2.1682,2.1679,2.1698,2.1711,2.1714,2.1745,2.175,2.1752,2.1765,2.1772,2.1771,2.179,2.1789,2.1762,2.1757,2.1753,2.175,2.1803,0,0,0,0,0,2.157,2.1578,2.1611,2.1608,2.1616,2.1646,2.1653,2.1671,2.169,2.1698,2.1718,2.1735,2.1746,2.1752,2.1764,2.1761,2.1768,2.1757,2.1753,2.1749,2.1748,2.1748,2.1744,2.1788,2.1788,2.1788,0,0,2.155,2.1572,2.1575,2.16,2.1616,2.1624,2.1652,2.1658,2.1665,2.1698,2.1705,2.172,2.1741,2.1742,2.1744,2.1754,2.1737,2.1747,2.1744,2.1744,2.1746,2.1741,2.1738,2.1787,2.1787,2.1788,0,0,2.1519,2.1536,2.1536,2.1552,2.1576,2.1596,2.1596,2.1625,2.1637,2.1644,2.167,2.1678,2.1696,2.171,2.172,2.1696,2.1714,2.1699,2.1676,2.1676,2.1673,2.167,2.1662,2.1659,2.1697,2.1697,2.1697,0,2.1491,2.1505,2.1534,2.154,2.155,2.1582,2.1583,2.1596,2.1622,2.1629,2.164,2.1664,2.1681,2.1686,2.168,2.1687,2.1688,2.1695,2.1671,2.1669,2.1666,2.1659,2.1656,2.1695,2.1695,2.1695,2.1696,0,2.147,2.1479,2.1476,2.1502,2.1512,2.1515,2.1545,2.1551,2.1569,2.1588,2.1595,2.1616,2.1633,2.1636,2.1653,2.1644,2.165,2.1666,2.1685,2.1659,2.1653,2.1651,2.1692,2.1693,2.1693,2.1694,0,0,2.1411,2.1455,2.1453,2.1466,2.1496,2.1503,2.1508,2.1526,2.1531,2.1548,2.1553,2.1569,2.1584,2.1595,2.1614,2.1614,2.1595,2.163,2.1631,2.1623,2.1587,2.1575,2.1571,2.1608,2.1607,2.1607,2.1585,0,2.1385,2.1396,2.1423,2.1426,2.1435,2.1467,2.1471,2.149,2.1508,2.1518,2.1538,2.1549,2.1568,2.1575,2.1576,2.1597,2.1588,2.1599,2.1612,2.1612,2.1606,2.1568,2.1555,2.1534,2.1583,2.1583,2.1582,0,2.1356,2.1373,2.1377,2.1407,2.1412,2.1416,2.1435,2.1444,2.1466,2.1479,2.1493,2.1514,2.1521,2.1539,2.1549,2.1556,2.1563,2.1574,2.1574,2.1576,2.1596,2.1569,2.1527,2.1524,2.1579,2.1579,2.1579,0,2.1313,2.1337,2.1343,2.1353,2.1388,2.139,2.1405,2.1428,2.1438,2.1454,2.1461,2.1478,2.1487,2.1499,2.1525,2.1536,2.1532,2.1552,2.1544,2.1543,2.1541,2.1541,2.15,2.1545,2.1545,2.1545,2.1546,0,2.1281,2.1282,2.1325,2.1328,2.1331,2.1362,2.1364,2.1381,2.1402,2.1409,2.1437,2.1444,2.1477,2.1488,2.1508,2.1513,2.1517,2.1528,2.1533,2.1526,2.1524,2.1531,2.1533,2.1545,2.1545,2.1545,2.1545,0,2.1234,2.1262,2.1271,2.1305,2.1313,2.1314,2.1343,2.1347,2.1368,2.1377,2.1381,2.1413,2.1426,2.1454,2.1474,2.1488,2.1489,2.1498,2.1482,2.1485,2.1475,2.1476,2.1437,2.1434,2.1481,2.148,2.148,0,2.1212,2.1214,2.1249,2.1256,2.127,2.1282,2.1293,2.1323,2.1333,2.1359,2.1361,2.1377,2.1392,2.1412,2.1436,2.1453,2.1463,2.1448,2.1465,2.1458,2.1463,2.1463,2.1463,2.1444,2.1443,2.1443,2.1442,0,2.117,2.1184,2.1198,2.1218,2.123,2.1246,2.1264,2.1269,2.1304,2.1313,2.1328,2.134,2.1362,2.1377,2.1398,2.1413,2.1433,2.1437,2.1436,2.1428,2.1419,2.1424,2.1471,2.1438,2.1438,2.1438,2.1439,2.1439,2.1135,2.1138,2.1164,2.1179,2.1196,2.1213,2.1219,2.1241,2.1255,2.1276,2.1293,2.1307,2.133,2.136,2.1374,2.1385,2.1394,2.1393,2.1392,2.1391,2.1388,2.1417,2.1388,2.1388,2.1389,2.1389,2.1389,0,2.1094,2.1113,2.1127,2.1152,2.1164,2.1184,2.1205,2.1214,2.1226,2.1246,2.126,2.1278,2.1294,2.132,2.1338,2.1342,2.1352,2.1346,2.1346,2.1349,2.1378,2.1378,2.1337,2.1337,2.1337,2.1337,2.1337,2.1337,2.1075,2.1083,2.11,2.1117,2.1135,2.115,2.116,2.1176,2.1192,2.1211,2.1225,2.1243,2.1266,2.1286,2.1301,2.1309,2.1314,2.1305,2.1315,2.1342,2.1347,2.1351,2.1351,2.1306,2.1306,2.1285,2.1285,2.1285]}]]